Flag for Netherlands

Past Weather in Nijmegen, Netherlands — Yesterday and Last 2 Weeks

Now
52 °F

Cool.


Feels Like: 51 °F
Forecast: 63 / 47 °F
Wind: 3 mph from Southwest

Location: Volkel
Current Time: Oct 1, 2020 at 10:22:04 pm
Latest Report: Oct 1, 2020 at 9:25 pm
Visibility: N/A
Pressure29.53 "Hg
Humidity: 94%
Dew Point: 50 °F
Location of NijmegenLocation

Past Weather in Nijmegen — Graph

°F

Nijmegen Temperature Yesterday

Maximum temperature yesterday: 66 °F (at 12:58 pm)
Minimum temperature yesterday: 54 °F (at 7:56 am)
Average temperature yesterday: 61 °F

High & Low Weather Summary for the Past Weeks

 TemperatureHumidityPressure
High79 °F (Sep 21, 3:25 pm)100% (Sep 21, 6:55 am)30.39 "Hg (Sep 21, 6:55 am)
Low43 °F (Sep 21, 7:25 am)28% (Sep 21, 3:25 pm)29.24 "Hg (Sep 26, 1:09 am)
Average58 °F76%29.80 "Hg
* Reported Sep 16 8:25 pm — Oct 1 8:56 pm, Nijmegen. Weather by CustomWeather, © 2020

Note: Actual official high and low records may vary slightly from our data, if they occured in-between our weather recording intervals... More about our weather records

Nijmegen Weather History for the Previous 24 Hours

Scroll right to see more
 ConditionsComfort  
Time TempWeatherWind HumidityBarometerVisibility
8:56 pm
Thu, Oct 1
52 °FPassing clouds.2 mph94%29.53 "HgN/A
8:55 pm52 °FPassing clouds.1 mph94%29.53 "HgN/A
8:31 pm54 °FPassing clouds.3 mph94%29.50 "HgN/A
8:07 pm55 °FLight rain. Partly cloudy.6 mph94%29.50 "HgN/A
7:58 pm55 °FLots of rain. Passing clouds.5 mph94%29.50 "Hg4 mi
7:26 pm55 °FPassing clouds.7 mph94%29.50 "HgN/A
6:55 pm55 °FScattered clouds.9 mph94%29.50 "HgN/A
6:30 pm57 °FBroken clouds.9 mph88%29.50 "HgN/A
6:12 pm57 °FOvercast.12 mph88%29.47 "HgN/A
6:00 pm57 °FMostly cloudy.10 mph88%29.47 "HgN/A
5:56 pm57 °FBroken clouds.10 mph88%29.47 "HgN/A
5:25 pm55 °FRain showers. Mostly cloudy.10 mph88%29.47 "HgN/A
5:10 pm55 °FHeavy rain. Broken clouds.12 mph82%29.47 "HgN/A
4:55 pm59 °FDrizzle. Broken clouds.10 mph88%29.47 "HgN/A
4:25 pm59 °FBroken clouds.12 mph88%29.47 "HgN/A
4:03 pm59 °FMostly cloudy.12 mph88%29.47 "HgN/A
3:35 pm57 °FBroken clouds.12 mph94%29.47 "HgN/A
3:16 pm57 °FCloudy.10 mph94%29.47 "HgN/A
2:56 pm57 °FLight rain. Mostly cloudy.9 mph94%29.47 "Hg4 mi
2:25 pm57 °FLight rain. Mostly cloudy.9 mph94%29.50 "Hg4 mi
1:56 pm57 °FLight rain. Overcast.8 mph94%29.50 "Hg4 mi
1:38 pm57 °FRain showers. Mostly cloudy.8 mph94%29.50 "Hg4 mi
12:56 pm59 °FDrizzle. Broken clouds.9 mph82%29.50 "HgN/A
12:44 pm59 °FDrizzle. Overcast.10 mph82%29.50 "HgN/A
12:25 pm59 °FOvercast.9 mph82%29.53 "HgN/A
11:57 am59 °FDrizzle. Broken clouds.10 mph82%29.53 "HgN/A
11:35 am59 °FDrizzle. Broken clouds.9 mph82%29.53 "HgN/A
10:57 am59 °FOvercast.9 mph82%29.53 "HgN/A
10:36 am59 °FOvercast.9 mph82%29.56 "HgN/A
9:55 am57 °FOvercast.10 mph82%29.56 "HgN/A
9:25 am57 °FMore clouds than sun.8 mph82%29.56 "HgN/A
8:55 am57 °FCloudy.7 mph82%29.59 "HgN/A
8:25 am57 °FBroken clouds.8 mph82%29.59 "HgN/A
8:09 am57 °FOvercast.8 mph82%29.59 "HgN/A
7:55 am57 °FOvercast.7 mph88%29.59 "HgN/A
7:25 am57 °FMostly cloudy.7 mph88%29.59 "HgN/A
6:55 am57 °FPartly cloudy.8 mph88%29.62 "HgN/A
6:25 am57 °FOvercast.8 mph88%29.62 "HgN/A
5:55 am57 °FOvercast.8 mph88%29.62 "HgN/A
5:25 am59 °FOvercast.9 mph82%29.65 "HgN/A
4:55 am59 °FOvercast.9 mph88%29.65 "HgN/A
4:25 am59 °FMostly cloudy.8 mph88%29.68 "HgN/A
3:55 am59 °FPartly cloudy.8 mph88%29.68 "HgN/A
3:25 am59 °FPartly cloudy.8 mph88%29.71 "HgN/A
2:55 am61 °FMostly cloudy.9 mph83%29.71 "HgN/A
2:25 am61 °FOvercast.9 mph88%29.71 "HgN/A
1:55 am61 °FMostly cloudy.8 mph88%29.74 "HgN/A
1:25 am61 °FMostly cloudy.7 mph88%29.74 "HgN/A
12:55 am61 °FMostly cloudy.7 mph88%29.77 "HgN/A
12:25 am61 °FMostly cloudy.8 mph88%29.77 "HgN/A
11:55 pm
Wed, Sep 30
61 °FOvercast.8 mph88%29.77 "HgN/A
11:25 pm61 °FMostly cloudy.8 mph88%29.80 "HgN/A
10:55 pm61 °FMostly cloudy.6 mph88%29.80 "HgN/A
10:25 pm61 °FOvercast.6 mph94%29.80 "HgN/A
Weather by CustomWeather, © 2020

See weather overview